Regional Weather Roundup
Issued by NWS

Home | Current Version | Previous Version | Graphics & Text | Print | Product List | Glossary Off
Versions: 1 2 3 4 5 6 7 8 9 10 11 12 13 14 15 16 17 18 19 20 21 22 23 24 25 26 27 28 29 30 31 32 33 34 35 36 37 38 39 40 41 42 43 44 45 46 47 48 49 50

000
ASUS45 KSLC 221910
RWRUT

UTAH REGIONAL WEATHER ROUNDUP
NATIONAL WEATHER SERVICE SALT LAKE CITY UT
1200 PM MST SUN JAN 22 2017

UTZ001>011-023>025-222000-

NORTHERN UTAH

CITY           SKY/WX    TMP DP  RH WIND       PRES   REMARKS
BRIGHAM CITY     N/A     31  22  69 N7        29.90F WCI  24
HILL AFB       PTSUNNY   33  23  66 SE9       29.86F WCI  25
LOGAN          CLOUDY    23  20  88 CALM      29.90F
OGDEN          CLOUDY    34  24  67 SE9       29.87F WCI  27
SALT LAKE CITY CLOUDY    33  23  66 SE16      29.89F WCI  23
TOOELE VALLEY  CLOUDY    41  27  56 S28G36    29.87F
WENDOVER       CLOUDY    28  21  74 NE9       29.86F WCI  20
HEBER CITY     CLOUDY    25  18  74 CALM      29.93F
WEST JORDAN    CLOUDY    32  27  82 S17       29.89F WCI  21

$$

UTZ011>015-024>027-222000-

CENTRAL/NORTHEAST UTAH

CITY           SKY/WX    TMP DP  RH WIND       PRES   REMARKS
PROVO AIRPORT  CLOUDY    36  22  56 S18       29.93F WCI  26
MOAB/CANYONLAN CLOUDY    37  26  64 E12       30.06F WCI  29
DELTA          CLOUDY    34  27  75 S16       29.93F WCI  23
PRICE          CLOUDY    29  18  63 E7        30.04F WCI  22
ROOSEVELT      CLOUDY    27  23  86 CALM      30.11F
VERNAL         CLOUDY    23  19  85 CALM      30.07F

$$

UTZ013>016-019>022-027-222000-

SOUTHERN UTAH

CITY           SKY/WX    TMP DP  RH WIND       PRES   REMARKS
BRYCE CANYON   LGT SNOW  22  20  92 SE16      30.02F FOG     WCI   8
CEDAR CITY     CLOUDY    34  28  79 SW10G23   29.97F WCI  26
MILFORD        CLOUDY    36  28  73 S23G31    29.93F WCI  24
ST GEORGE      CLOUDY    43  34  70 E15       30.13F
HANKSVILLE     CLOUDY    36  27  69 MISG      30.09F
BLANDING       CLOUDY    28  23  81 CALM      30.21S

$$

REGIONAL REPORTS     COLORADO/ARIZONA

CITY           SKY/WX    TMP DP  RH WIND       PRES   REMARKS
CRAIG, CO      SUNNY     19  13  77 CALM      30.05F
GRAND JUNCTION CLOUDY    37  27  67 SE12      30.08F WCI  29
RIFLE, CO      CLOUDY    33  20  58 CALM      30.09F
MONTROSE, CO   SUNNY     34  17  50 CALM      30.12F
CORTEZ, CO     CLOUDY    25  21  85 SW6       30.15F WCI  18
COLORADO CITY  LGT SNOW  36  32  87 SE8       30.13F WCI  29
PAGE, AZ       CLOUDY    40  27  59 CALM      30.11F
GRAND CANYON   LGT SNOW  29  28  96 S10G20    30.12F VSB 3/4 WCI  20
KINGMAN, AZ    LGT RAIN  42  36  79 S10G17    30.14S
FLAGSTAFF, AZ  FLURRIES  28  26  92 SW13      30.14F WCI  17

$$

REGIONAL REPORTS    NEVADA/IDAHO/WYOMING

CITY           SKY/WX    TMP DP  RH WIND       PRES   REMARKS
LAS VEGAS, NV  LGT RAIN  45  40  82 CALM      30.04F
ELY, NY        CLOUDY    31  25  78 SE30G40   29.83S WCI  16
ELKO, NV       LGT SNOW  34  28  79 S20       29.75F WCI  23
POCATELLO, ID  CLOUDY    36  21  54 S16G29    29.83F WCI  26
BURLEY, ID     CLOUDY    38  22  52 N9        29.74F WCI  31
FORT BRIDGER,  MOCLDY    24  12  59 SE6       29.94F WCI  17
EVANSTON, WY   CLOUDY    24  11  57 S3        29.89F
ROCK SPRINGS,  CLOUDY    23  13  65 E5        29.94F WCI  17

$$



USA.gov is the U.S. government's official web portal to all federal, state and local government web resources and services.